Погода в Бонне

Германия     50˚44′11″N   7˚05′25″E
темп.,
°C
ветер,
м/с
пор.,
м/с
влажн.,
%
обл.,
%
осадки,
мм/ч
давл.,
гПа
погр.,
м
5 декабря, сб
сб501:00+4˚ююв1389100 0.0 99295
04:00+4˚ююв1289100 0.0 99359
07:00+4˚ю2688100 0.0 995195
10:00+4˚ю498468 0.0 998574
13:00+6˚ююв356461 0.0 999853
16:00+5˚юв357075 0.0 1000415
19:00+3˚юв398139 0.0 1001424
22:00+3˚вюв248597 0.0 1001184
6 декабря, вс
вс601:00+3˚в238698 0.0 1001114
04:00+3˚вюв2485100 0.0 1001201
07:00+3˚ююв1187100 0.0 100123
10:00+3˚юв1282100 0.0 100296
13:00+6˚ююв127096 0.0 1002248
16:00+4˚с127689 0.0 100153
19:00+4˚сз138294 0.0 1000116
22:00+4˚сз2487100 0.1 1000226
7 декабря, пн
пн701:00+4˚зсз4791100 0.9 997318
04:00+3˚зсз5994100 3.4 995467
07:00+3˚з4895100 7.8 995452
10:00+3˚зюз5995100 3.2 996510
13:00+4˚зюз4888100 5.9 999676
16:00+4˚ююв3783100 0.8 1001434
19:00+4˚ююв3885100 0.9 1003390
22:00+3˚ююв3787100 0.0 1004467
8 декабря, вт
вт801:00+3˚ююв2590100 0.0 1004352
04:00+2˚юв2389100 0.0 1005115
07:00+1˚юв1389100 0.0 1006134
10:00+2˚вюв138523 0.0 1007188
13:00+5˚вюв137312 0.0 1007416
16:00+4˚вюв11790 0.0 100823
19:00+2˚юв11855 0.0 100922
22:00+1˚ююв128612 0.0 101134
9 декабря, ср
ср901:00+1˚ссв018826 0.0 101122
04:00+1˚з118981 0.0 101122
07:00+1˚зсз239090 0.0 1011131
10:00+1˚зсз358691 0.0 1012269
13:00+3˚сз247894 0.0 1011344
16:00+3˚сз2481100 0.0 1011242
19:00+1˚зюз1185100 0.0 101226
22:00+1˚ююв22860 0.0 101242